STARLINK-1309, 45414

Orbit data source: Space-Track

STARLINK-1309, 45414 is a payload satellite owned by SpaceX/Seattle (US) in LEO that was launched on Wed, 18 Mar 2020 UTC via an FALCON 9 launch vehicle from the Air Force Eastern Test Range (AFETR). Payload-class satellites include a variety of spacecraft equipped with specific instruments for various scientific and technological missions. These include communications satellites like Starlink; space stations such as the ISS; scientific satellites like the Hubble; Earth observation satellites from companies like Planet Labs, Umbra, and HawkEye 360; GPS; miniature CubeSats for education and research; and military/defense satellites.

Loading next visibility...
Identifier
45414, 2020-019BG
Orbit
LEO
Last TLE update
11 hours ago
Origin
Manufacturer
SpaceX/Seattle
Mission
Operational Commercial Communications
Bus & Motor
STARLINK, Unknown motor
Mass
260 kg wet, ~248 kg dry
Launch date (UTC)
2020-03-18 (5 years ago)
Launch vehicle
FALCON 9
Launch site
Air Force Eastern Test Range (AFETR)
Object type
Payload
Rocket body
Debris
Shape & HBR
Box + 1 Pan, 8.86 m
Radar Cross Section
13.562 m², Large (>1 m²)

Expand to show TLE details & history

TLE from 11 hours ago
0 STARLINK-1309
1 45414U 20019BG  25183.40110811 -.00000339  00000-0 -38671-5 0  9992
2 45414  53.0542 180.2076 0001283  89.3680 270.7456 15.06392201292127
Epoch: 2025-07-02T09:37Z
TLE epoch observation values (Epoch: 2025-07-02T09:37:35.74Z)
Latitude
-0.00003°
Longitude
115.12592°
Altitude
548.103 km
Speed
7.589 km/s
True Right ascension
12h 00m 49s
True Declination
0° 00' 00"
Sunlit
Object was in daylight at epoch
Visualization orbit readout
Latitude
20.03546°
Longitude
128.84791°
Altitude
547.321 km
Speed
7.592 km/s
Apparent Right ascension
15h 56m 08s
Apparent Declination
-15° 19' 19"
Sunlit
Object is in daylight
Visualization observer readout
Local Sidereal Time
08:37:10
Azimuth
89.599° E
Elevation
-24.797°
Doppler factor
1
Orbital elements
Apogee altitude
548.395 km
Perigee altitude
546.618 km
Semi-major axis
6,925.643 km
Eccentricity
0.00013
Inclination
53.0542°
RAAN
180.2076°
Arg. of periapsis
89.368°
True anomaly
Unknown
Mean anomaly
270.7456°
Eccentric anomaly
Unknown
Mean motion
3.76576 °/min
Orbital period
95.6 mins
BSTAR
-0.0000038671
Loading maneuver chart data...
Loading SW <> Apogee altitude chart data...
Loading historical data...
Loading historical data...
Loading historical data...
Loading historical data...
Loading historical data...
Loading historical data...
Loading historical data...

STARLINK-1309 Visibility forecast

Observer location: undefined°, undefined°

Span
Click to sort rows by Start time (UTC) header in descending order
Start Az.
Max El. time (UTC)
Max El. Az.
Max El.
End time (UTC)
End Az.
6 mins2025-07-03 01:42:04.135Z188.978° SSW2025-07-03 01:45:04.135Z133.814° SE26.644°2025-07-03 01:48:04.135Z74.801° E
6 mins2025-07-03 03:22:04.135Z266.445° W2025-07-03 03:25:04.135Z346.97° N31.857°2025-07-03 03:28:04.135Z36.738° NE
6 mins2025-07-03 08:24:04.135Z335.064° NNW2025-07-03 08:26:04.135Z18.673° NNE29.603°2025-07-03 08:30:04.135Z97.253° ESE
5 mins2025-07-03 10:04:04.135Z276.81° WNW2025-07-03 10:06:04.135Z222.465° SW30.424°2025-07-03 10:09:04.135Z164.595° S
|